Home   Weather   Coeur d'Alene   Past weeks
Flag for USA

Past Weather in Coeur d'Alene, Idaho, USA — Yesterday and Last 2 Weeks

Now
52 °F

Overcast.


Feels Like: 48 °F
Forecast: 57 / 39 °F
Wind: 12 mph from Southwest

Location: Coeur d'Alene Weather Reporting System

Current Time: Oct 22, 2019 at 10:08:39 am

Latest Report: Oct 22, 2019 at 8:56 am


Visibility: 10 mi

Pressure: 30.14 "Hg (27.85 "Hg at 655m altitude)

Humidity: 89%

Dew Point: 49 °F

Location of Coeur d'AleneLocation

Past Weather in Coeur d'Alene — Graph

°F

Coeur d'Alene Temperature Yesterday

Maximum temperature yesterday: 46 °F (at 4:23 pm)
Minimum temperature yesterday: 37 °F (at 3:56 am)
Average temperature yesterday: 42 °F

High & Low Weather Summary for the Past Weeks

 TemperatureHumidityPressure
High65 °F (Oct 7, 2:56 pm)100% (Oct 9, 12:14 am)30.63 "Hg (Oct 9, 12:14 am)
Low17 °F (Oct 10, 6:56 am)29% (Oct 8, 2:56 pm)29.57 "Hg (Oct 19, 11:09 am)
Average43 °F77%30.06 "Hg
* Reported Oct 7 7:00 am — Oct 22 7:56 am, Coeur d'Alene. Weather by CustomWeather, © 2019

Note: Actual official high and low records may vary slightly from our data, if they occured in-between our weather recording intervals... More about our weather records

Advertising

Coeur d'Alene Weather History for the Previous 24 Hours

Scroll right to see more
 ConditionsComfort  
Time TempWeatherWind HumidityBarometerVisibility
7:56 am
Tue, Oct 22
52 °FOvercast.18 mph89%30.11 "Hg10 mi
6:56 am51 °FOvercast.13 mph89%30.13 "Hg10 mi
5:56 am50 °FOvercast.13 mph93%30.16 "Hg10 mi
5:27 am48 °FOvercast.6 mph94%30.08 "Hg10 mi
4:56 am49 °FOvercast.3 mph93%30.16 "Hg10 mi
4:09 am46 °FLight rain. Low clouds.9 mph100%30.09 "Hg10 mi
3:56 am47 °FLight rain. Mostly cloudy.8 mph97%30.16 "Hg9 mi
3:34 am46 °FRain. Fog.6 mph100%30.10 "Hg5 mi
2:56 am46 °FRain. Overcast.7 mph96%30.20 "Hg9 mi
2:11 am46 °FRain. Overcast.7 mph93%30.14 "Hg10 mi
1:56 am46 °FRain. Overcast.7 mph93%30.21 "Hg10 mi
11:56 pm
Mon, Oct 21
45 °FRain. Overcast.7 mph93%30.24 "Hg10 mi
10:56 pm44 °FLight rain. Overcast.9 mph96%30.25 "Hg10 mi
10:22 pm45 °FLight rain. Mostly cloudy.7 mph93%30.17 "Hg10 mi
10:09 pm45 °FLight rain. Mostly cloudy.8 mph93%30.18 "Hg8 mi
9:56 pm44 °FLight rain. Mostly cloudy.6 mph96%30.27 "Hg9 mi
9:38 pm45 °FLight rain. Mostly cloudy.7 mph93%30.19 "Hg10 mi
8:56 pm44 °FLight rain. Overcast.6 mph96%30.28 "Hg10 mi
7:56 pm44 °FLight rain. Mostly cloudy.3 mph96%30.30 "Hg10 mi
7:30 pm45 °FLight rain. Mostly cloudy.No wind93%30.21 "Hg10 mi
6:56 pm44 °FLight rain. Mostly cloudy.3 mph93%30.30 "Hg10 mi
6:13 pm45 °FLight rain. Mostly cloudy.6 mph93%30.20 "Hg10 mi
5:56 pm45 °FRain. Fog.7 mph93%30.29 "Hg6 mi
4:56 pm46 °FLight rain. Mostly cloudy.5 mph89%30.29 "Hg7 mi
4:23 pm46 °FLight rain. Mostly cloudy.7 mph87%30.21 "Hg10 mi
3:56 pm46 °FLight rain. Cloudy.7 mph93%30.30 "Hg8 mi
2:56 pm46 °FLight rain. Cloudy.5 mph89%30.29 "Hg10 mi
1:56 pm46 °FLight rain. Scattered clouds.5 mph86%30.29 "Hg10 mi
1:08 pm45 °FLight rain. More clouds than sun.6 mph87%30.21 "Hg10 mi
12:34 pm45 °FPartly sunny.7 mph81%30.21 "Hg10 mi
11:56 am45 °FOvercast.6 mph82%30.30 "Hg10 mi
10:56 am44 °FPartly sunny.7 mph85%30.29 "Hg10 mi
Weather by CustomWeather, © 2019

See weather overview